Regional Weather Roundup
Issued by NWS

Home | Current Version | Previous Version | Graphics & Text | Print | Product List | Glossary On
Versions: 1 2 3 4 5 6 7 8 9 10 11 12 13 14 15 16 17 18 19 20 21 22 23 24 25 26 27 28 29 30 31 32 33 34 35 36 37 38 39 40 41 42 43 44 45 46 47 48 49 50
000
ASUS43 KMKX 282000
RWRWI

WISCONSIN REGIONAL WEATHER ROUNDUP
NATIONAL WEATHER SERVICE MILWAUKEE/SULLIVAN WI
200 PM CST FRI NOV 28 2014

NOTE: "FAIR" INDICATES FEW OR NO CLOUDS BELOW 12,000 FEET WITH NO
SIGNIFICANT WEATHER AND/OR OBSTRUCTIONS TO VISIBILITY.

WIZ001-002-006>008-014>016-023>028-282100-
NORTHWEST WISCONSIN

CITY           SKY/WX    TMP DP  RH WIND       PRES   REMARKS
SUPERIOR ARPT  CLOUDY    17  11  77 NE3       29.95F
ASHLAND        CLOUDY    15  10  80 N3        29.97F
HAYWARD        CLOUDY    16   9  74 VRB5      29.91S WCI   9
SIREN          FLURRIES  18  11  75 SE7       29.91F WCI   8
CUMBERLAND     FLURRIES  18  10  73 SE6       29.90F WCI   9
RICE LAKE      FLURRIES  17  12  79 SE8       29.92F WCI   7
CHETEK         FLURRIES  17  11  77 E8        29.91F WCI   7
LADYSMITH      FLURRIES  18  12  79 SE5       29.94F WCI  11
EAU CLAIRE     NOT AVBL
MENOMONIE      CLOUDY    22  14  71 E7        29.91F WCI  13
NEW RICHMOND   FLURRIES  20  14  75 SE8       29.88F WCI  11
OSCEOLA        CLOUDY    20  14  76 E6        29.92F WCI  12
$$

WIZ003>005-009-010-017-018-282100-
NORTH CENTRAL WISCONSIN

CITY           SKY/WX    TMP DP  RH WIND       PRES   REMARKS
MANITOWISH WTR LGT SNOW  13  10  89 SE7       29.90F WCI   3
ARBOR VITAE    LGT SNOW  17  13  85 SE5       29.91F WCI  10
WOODRUFF       LGT SNOW  17  13  85 SE5       29.91F WCI  10
RHINELANDER    CLOUDY    14  10  84 SE7       29.92F WCI   4
EAGLE RIVER    FLURRIES  14   9  80 SE5       29.92F WCI   6
LAND O LAKES   FLURRIES  15  12  88 SE6       29.93F WCI   6
PHILLIPS       LGT SNOW  14  10  83 S6        29.91F WCI   5
TOMAHAWK       CLOUDY    15  10  81 CALM      29.94S
MEDFORD        LGT SNOW  16  11  82 SE5       29.91F WCI   8
MERRILL        CLOUDY    16  11  81 SE6       29.93F WCI   7
$$

WIZ029-030-035-036-043>047-282100-
CENTRAL WISCONSIN

CITY           SKY/WX    TMP DP  RH WIND       PRES   REMARKS
WAUSAU         FLURRIES  16  11  80 SE9       29.93F WCI   4
MOSINEE        FLURRIES  18  16  93 SE8       29.95F WCI   7
MARSHFIELD     CLOUDY    20  13  74 SE6       29.92F WCI  12
STEVENS POINT  CLOUDY    17  12  82 SE7       29.96F WCI   8
WAUPACA        PTSUNNY   23  16  74 SE7       30.00F WCI  14
WAUTOMA        NOT AVBL
WISC RAPIDS    CLOUDY    22  14  71 E6        29.95F WCI  14
CAMP DOUGLAS   NOT AVBL
$$

WIZ011>013-019>022-031-037>040-048>050-282100-
NORTHEAST WISCONSIN

CITY           SKY/WX    TMP DP  RH WIND       PRES   REMARKS
ANTIGO         FLURRIES  13  10  85 SE9       29.94F WCI   1
SHAWANO        LGT SNOW  20  15  80 SE7       30.01F WCI  11
OCONTO         CLOUDY    19  16  90 SE5       30.04F WCI  12
STURGEON BAY   CLOUDY    19  16  86 E3        30.03F
GREEN BAY      LGT SNOW  22  18  85 SE7       30.00F FOG     WCI  13
MANITOWOC      NOT AVBL
APPLETON       CLOUDY    21  16  79 SE6       29.99F WCI  14
CLINTONVILLE   CLOUDY    19  14  79 SE3       30.00F
OSHKOSH        CLOUDY    24  16  71 MISG      29.98F
$$

WIZ032>034-041-042-053>061-282100-
SOUTHWEST WISCONSIN

CITY           SKY/WX    TMP DP  RH WIND       PRES   REMARKS
LA CROSSE      PTSUNNY   27  16  63 SE5       29.92F WCI  22
SPARTA         MOSUNNY   26  15  63 S7        29.94F WCI  18
VIROQUA        PTSUNNY   25  17  72 S6        29.90F WCI  18
BOSCOBEL       PTSUNNY   28  18  66 S7        29.95F WCI  21
PRAIRIE DU CHI PTSUNNY   28  18  66 SE5       29.93F WCI  23
PLATTEVILLE    CLOUDY    27  20  75 CALM      29.94F
$$

WIZ056-057-062-063-064-067-068-282100-
SOUTH CENTRAL WISCONSIN

CITY           SKY/WX    TMP DP  RH WIND       PRES   REMARKS
REEDSBURG      CLOUDY    25  17  69 SE6       29.94F WCI  18
BARABOO/DELLS  MOSUNNY   24  15  70 S9        29.94F WCI  14
LONE ROCK      NOT AVBL
MINERAL POINT  MOSUNNY   28  21  74 SE10      29.92F WCI  19
MADISON        CLOUDY    25  16  68 S10       29.97F WCI  15
MIDDLETON      PTSUNNY   28  18  67 S10G17    29.97F WCI  18
WATERTOWN      MOSUNNY   26  18  73 S8        29.99S WCI  17
MONROE         PTSUNNY   27  21  80 S15       29.94F WCI  15
JANESVILLE     SUNNY     28  21  74 S17       29.97F WCI  16
$$

WIZ051-052-058>065-066-070>072-282100-
SOUTHEAST WISCONSIN

CITY           SKY/WX    TMP DP  RH WIND       PRES   REMARKS
MILWAUKEE      PTSUNNY   29  21  72 S15       29.99F WCI  18
WAUKESHA       MOSUNNY   25  16  68 SE12G18   30.00F WCI  14
MILWAUKEE/TIMM CLOUDY    28  18  64 S10       30.01F WCI  19
RACINE         CLOUDY    30  21  69 S20G25    30.00F WCI  17
BURLINGTON     PTSUNNY   27  18  67 S10       29.99F WCI  17
KENOSHA        CLOUDY    28  20  71 S13       30.00F WCI  17
FOND DU LAC    CLOUDY    26  16  65 S14       29.98F WCI  14
SHEBOYGAN      CLOUDY    29  22  75 S8        29.99F WCI  21
WEST BEND      CLOUDY    27  14  59 S5        30.00S WCI  21
JUNEAU         CLOUDY    26  17  69 S13       30.00S WCI  15
$$

LSZ147-162-282100-
LAKE SUPERIOR

STATION/POSITION TIME  TEMP    WIND        PRES    WAVE
                       AIR SEA DIR/SP/G            HT/PER
                 (UTC) (F)     (DEG/KT/KT) (MB)    (FT/S)
DEVILS ISLAND    1900   20     160/  7/ 10 1016.4F
PORT WING        1900   16     180/  6/  9 1015.2F
SAXON HARBOR     1900   18      CALM  / 20 1015.2F
$$

LMZ867-665-643>646-282100-
LAKE MICHIGAN

STATION/POSITION TIME  TEMP    WIND        PRES    WAVE
                       AIR SEA DIR/SP/G            HT/PER
                 (UTC) (F)     (DEG/KT/KT) (MB)    (FT/S)
CHAMBERS ISLAND  1900   21     190/  2/  7 1018.6F
N MID LAKE BUOY  1850   24 42  240/ 10/ 12 1020.1F   2/ 4
NORTHPORT PIER   1919   19     230/  1/  6 1018.6F
SISTER BAY       1928             CALM       N/A
ALGOMA LAKESHORE 1828          280/  2/  4   N/A
KEWAUNEE LAKESHO 1900   21     220/  1/  3 1017.2F
SHEBOYGAN LAKESH 1900   29 34  180/ 19/ 21 1018.5F
PORT WASHINGTON  1921   31     170/ 16/ 24 1016.9F
MILWAUKEE LAKESH 1900   28     170/ 13/ 17   N/A
S MID LAKE BUOY  1850   29 42  160/ 19/ 23 1019.6F   5/ 5
KENOSHA   LAKESH 1900   29     170/ 23/ 26 1017.3F
$$

TC  - TEMPERATURE IN CELSIUS
VSB - VISIBILITY IN STATUTE MILES
WCI - WIND CHILL INDEX
HX  - HEAT INDEX




USA.gov is the U.S. government's official web portal to all federal, state and local government web resources and services.